Latest Weather Observations for Edenhope

IDV60801

Issued at 5:31 am EST Monday 31 August 2015 (issued every 30 minutes, with the page automatically refreshed every 10 minutes)

About weather observations | Map of weather stations | Latest weather observations for VIC | Other Formats
Station Details ID: 079099 Name: EDENHOPE AIRPORT Lat: -37.02 Lon: 141.27 Height: 155.0 m
Data from the previous 72 hours. | See also: Recent months at Edenhope
Date/Time
EST
Temp
°C
App
Temp
°C
Dew
Point
Rel
Hum
%
Delta-T
°C
Wind Press
QNH
hPa
Press
MSL
hPa
Rain
since 9 am
mm
Dir
 
Spd
km/h
Gust
km/h
Spd
kts
Gust
kts
31/05:30am 2.3 -0.2 1.4 94 0.3 ESE 4 6 2 3 - - 0.0
31/05:00am 2.5 -0.3 1.8 95 0.3 ESE 6 7 3 4 - - 0.0
31/04:30am 2.6 -0.3 1.7 94 0.4 SE 6 6 3 3 - - 0.0
31/04:00am 2.5 0.0 1.5 93 0.4 SE 4 6 2 3 - - 0.0
31/03:30am 3.6 1.2 2.3 91 0.5 ESE 4 4 2 2 - - 0.0
31/03:00am 5.0 3.2 3.2 88 0.7 ENE 2 4 1 2 - - 0.0
31/02:30am 5.9 3.3 3.2 83 1.1 E 6 9 3 5 - - 0.0
31/02:00am 6.6 4.5 3.8 82 1.2 E 4 6 2 3 - - 0.0
31/01:30am 7.1 4.7 4.1 81 1.3 ESE 6 7 3 4 - - 0.0
31/01:00am 7.4 4.4 4.2 80 1.4 ESE 9 13 5 7 - - 0.0
31/12:30am 7.7 5.2 4.5 80 1.4 SE 7 11 4 6 - - 0.0
31/12:00am 8.0 5.1 4.6 79 1.5 SE 9 13 5 7 - - 0.0
 
Date/Time
EST
Temp
°C
App
Temp
°C
Dew
Point
Rel
Hum
%
Delta-T
°C
Wind Press
QNH
hPa
Press
MSL
hPa
Rain
since 9 am
mm
Dir
 
Spd
km/h
Gust
km/h
Spd
kts
Gust
kts
30/11:30pm 8.4 5.5 4.8 78 1.6 ESE 9 11 5 6 - - 0.0
30/11:00pm 8.8 6.0 5.2 78 1.6 SE 9 13 5 7 - - 0.0
30/10:30pm 9.1 6.4 5.5 78 1.6 SE 9 13 5 7 - - 0.0
30/10:00pm 9.6 7.3 5.0 73 2.1 SSE 6 9 3 5 - - 0.0
30/09:30pm 9.8 7.4 4.4 69 2.4 S 6 7 3 4 - - 0.0
30/09:00pm 9.8 8.1 4.2 68 2.5 SE 2 4 1 2 - - 0.0
30/08:30pm 9.9 7.9 4.3 68 2.5 SSE 4 6 2 3 - - 0.0
30/08:00pm 10.1 7.7 4.5 68 2.5 SSE 6 9 3 5 - - 0.0
30/07:30pm 10.1 8.2 4.7 69 2.4 SE 4 6 2 3 - - 0.0
30/07:00pm 10.2 7.8 4.1 66 2.7 SSE 6 9 3 5 - - 0.0
30/06:30pm 10.5 8.0 4.9 68 2.6 SE 7 11 4 6 - - 0.0
30/06:00pm 10.8 7.6 5.3 69 2.5 SE 11 15 6 8 - - 0.0
30/05:30pm 11.5 8.8 5.8 68 2.7 SE 9 13 5 7 - - 0.0
30/05:00pm 11.5 9.2 5.6 67 2.8 SE 7 11 4 6 - - 0.0
30/04:30pm 12.1 9.3 5.0 62 3.3 S 9 13 5 7 - - 0.0
30/04:00pm 12.1 9.4 5.5 64 3.1 S 9 15 5 8 - - 0.0
30/03:30pm 12.3 9.8 5.0 61 3.4 SSW 7 11 4 6 - - 0.0
30/03:00pm 12.1 9.8 4.6 60 3.4 SSE 6 9 3 5 - - 0.0
30/02:30pm 11.7 8.9 5.1 64 3.1 SSE 9 15 5 8 - - 0.0
30/02:00pm 12.1 9.6 4.6 60 3.4 S 7 17 4 9 - - 0.0
30/01:30pm 11.5 8.6 4.7 63 3.1 S 9 17 5 9 - - 0.0
30/01:00pm 11.4 8.5 4.8 64 3.0 SE 9 15 5 8 - - 0.0
30/12:30pm 10.9 7.7 5.0 67 2.7 SSE 11 19 6 10 - - 0.0
30/12:00pm 10.6 7.8 5.2 69 2.5 SE 9 17 5 9 - - 0.0
30/11:30am 10.9 8.2 5.7 70 2.4 SSE 9 15 5 8 - - 0.0
30/11:00am 10.5 7.8 5.5 71 2.3 ESE 9 13 5 7 - - 0.0
30/10:30am 9.4 6.7 5.6 77 1.7 SE 9 13 5 7 - - 0.0
30/10:00am 9.3 6.3 5.9 79 1.6 SE 11 17 6 9 - - 0.0
30/09:30am 7.8 5.5 5.9 88 0.9 SSE 7 11 4 6 - - 0.0
30/09:00am 7.1 4.5 6.2 94 0.4 SE 9 13 5 7 - - 0.0
30/08:30am 6.7 4.5 6.4 98 0.1 SE 7 11 4 6 - - 0.0
30/08:00am 6.3 4.3 6.2 99 0.0 SE 6 7 3 4 - - 0.0
30/07:30am 6.0 4.3 5.9 99 0.0 SSE 4 7 2 4 - - 0.0
30/07:00am 5.8 4.0 5.5 98 0.1 S 4 6 2 3 - - 0.0
30/06:30am 5.6 3.8 5.3 98 0.1 SSW 4 6 2 3 - - 0.0
30/06:00am 5.7 3.9 5.4 98 0.1 SSW 4 7 2 4 - - 0.0
30/05:30am 5.7 3.5 5.4 98 0.1 S 6 7 3 4 - - 0.0
30/05:00am 5.7 3.9 5.3 97 0.2 SSW 4 6 2 3 - - 0.0
30/04:30am 5.7 3.9 5.3 97 0.2 SW 4 6 2 3 - - 0.0
30/04:00am 5.8 3.6 5.2 96 0.3 SSW 6 7 3 4 - - 0.0
30/03:30am 5.8 3.6 5.2 96 0.3 SSW 6 7 3 4 - - 0.0
30/03:00am 5.2 3.2 4.5 95 0.3 WSW 4 6 2 3 - - 0.0
30/02:30am 5.3 4.1 4.6 95 0.3 CALM 0 0 0 0 - - 0.0
30/02:00am 5.3 3.7 4.6 95 0.3 S 2 6 1 3 - - 0.0
30/01:30am 4.6 3.3 3.9 95 0.3 CALM 0 0 0 0 - - 0.0
30/01:00am 4.3 2.5 3.4 94 0.4 SW 2 4 1 2 - - 0.0
30/12:30am 4.1 2.2 3.1 93 0.4 SW 2 2 1 1 - - 0.0
30/12:00am 4.9 2.8 3.9 93 0.4 SSW 4 7 2 4 - - 0.0
 
Date/Time
EST
Temp
°C
App
Temp
°C
Dew
Point
Rel
Hum
%
Delta-T
°C
Wind Press
QNH
hPa
Press
MSL
hPa
Rain
since 9 am
mm
Dir
 
Spd
km/h
Gust
km/h
Spd
kts
Gust
kts
29/11:30pm 5.3 3.6 4.0 91 0.6 SSW 2 4 1 2 - - 0.0
29/11:00pm 5.4 3.7 3.9 90 0.6 S 2 4 1 2 - - 0.0
29/10:30pm 5.7 3.2 3.9 88 0.8 SSE 6 6 3 3 - - 0.0
29/10:00pm 6.2 3.2 4.0 86 0.9 SSE 9 15 5 8 - - 0.0
29/09:30pm 6.4 4.3 3.7 83 1.2 SSE 4 6 2 3 - - 0.0
29/09:00pm 7.1 4.6 3.7 79 1.5 SE 6 7 3 4 - - 0.0
29/08:30pm 8.1 5.5 4.1 76 1.8 SE 7 11 4 6 - - 0.0
29/08:00pm 7.8 5.7 3.7 75 1.8 SE 4 6 2 3 - - 0.0
29/07:30pm 7.9 5.4 3.8 75 1.8 SSE 6 7 3 4 - - 0.0
29/07:00pm 8.3 5.6 3.6 72 2.0 SSE 7 11 4 6 - - 0.0
29/06:30pm 8.2 5.5 3.5 72 2.0 SSE 7 13 4 7 - - 0.0
29/06:00pm 8.5 5.5 2.3 65 2.6 SSE 7 11 4 6 - - 0.0
29/05:30pm 9.6 5.4 1.5 57 3.4 SSE 13 19 7 10 - - 0.0
29/05:00pm 10.8 6.3 1.9 54 3.8 SSE 15 19 8 10 - - 0.0
29/04:30pm 10.6 6.3 3.4 61 3.2 SSE 15 19 8 10 - - 0.0
29/04:00pm 10.6 6.3 3.2 60 3.2 SE 15 20 8 11 - - 0.0
29/03:30pm 11.4 7.4 2.7 55 3.8 SE 13 19 7 10 - - 0.0
29/03:00pm 12.1 7.6 2.3 51 4.3 SSE 15 22 8 12 - - 0.0
29/02:30pm 11.3 6.7 1.3 50 4.2 SE 15 22 8 12 - - 0.0
29/02:00pm 11.0 6.4 1.5 52 4.0 SE 15 24 8 13 - - 0.0
29/01:30pm 10.9 5.9 1.4 52 4.0 SE 17 28 9 15 - - 0.0
29/01:00pm 10.8 6.6 1.9 54 3.8 S 13 20 7 11 - - 0.0
29/12:30pm 10.5 5.5 1.6 54 3.8 SSE 17 28 9 15 - - 0.0
29/12:00pm 10.8 5.8 1.6 53 3.9 SE 17 22 9 12 - - 0.0
29/11:30am 10.7 5.8 1.8 54 3.8 SE 17 24 9 13 - - 0.0
29/11:00am 9.9 5.3 1.8 57 3.4 SE 15 22 8 12 - - 0.0
29/10:30am 9.5 5.0 2.4 61 3.0 SE 15 22 8 12 - - 0.0
29/10:00am 8.7 4.1 1.6 61 2.9 SE 15 22 8 12 - - 0.0
29/09:30am 7.7 4.3 2.0 67 2.4 SE 9 13 5 7 - - 0.0
29/09:00am 6.2 2.6 0.7 68 2.2 SE 9 13 5 7 - - 1.4
29/08:30am 3.5 1.7 1.5 87 0.8 CALM 0 0 0 0 - - 1.4
29/08:00am 2.1 0.2 0.6 90 0.6 CALM 0 2 0 1 - - 1.4
29/07:30am 0.6 -1.9 -0.7 91 0.5 SE 2 4 1 2 - - 1.4
29/07:00am 0.6 -2.3 -1.2 88 0.7 SSE 4 6 2 3 - - 1.4
29/06:30am 1.4 -1.1 -1.0 84 0.9 SE 2 2 1 1 - - 1.4
29/06:00am 2.5 -0.9 -0.3 82 1.0 SE 7 9 4 5 - - 1.4
29/05:30am 2.1 -1.2 -0.2 85 0.8 SE 7 11 4 6 - - 1.4
29/05:00am 2.2 -0.5 0.1 86 0.8 SE 4 6 2 3 - - 1.4
29/04:30am 3.0 -0.1 0.4 83 1.0 SSE 6 6 3 3 - - 1.4
29/04:00am 3.3 0.3 0.7 83 1.0 SSE 6 9 3 5 - - 1.4
29/03:30am 3.6 0.5 1.3 85 0.9 SE 7 11 4 6 - - 1.4
29/03:00am 3.7 0.7 1.9 88 0.7 SSE 7 9 4 5 - - 1.4
29/02:30am 4.4 1.5 2.4 87 0.8 SSE 7 13 4 7 - - 1.4
29/02:00am 4.9 1.6 2.6 85 0.9 SSE 9 11 5 6 - - 1.4
29/01:30am 5.3 2.4 2.5 82 1.1 SSE 7 9 4 5 - - 1.4
29/01:00am 6.0 2.8 2.8 80 1.3 SE 9 13 5 7 - - 1.4
29/12:30am 6.7 3.5 3.1 78 1.5 SE 9 17 5 9 - - 1.4
29/12:00am 7.3 3.0 3.5 77 1.6 SE 15 20 8 11 - - 1.4
 
Date/Time
EST
Temp
°C
App
Temp
°C
Dew
Point
Rel
Hum
%
Delta-T
°C
Wind Press
QNH
hPa
Press
MSL
hPa
Rain
since 9 am
mm
Dir
 
Spd
km/h
Gust
km/h
Spd
kts
Gust
kts
28/11:30pm 7.6 4.2 3.8 77 1.6 SE 11 17 6 9 - - 1.4
28/11:00pm 7.7 3.9 4.1 78 1.6 SE 13 20 7 11 - - 1.4
28/10:30pm 7.9 4.2 4.3 78 1.6 SE 13 22 7 12 - - 1.4
28/10:00pm 8.0 4.4 4.8 80 1.4 SE 13 20 7 11 - - 1.4
28/09:30pm 7.9 4.3 5.0 82 1.3 SE 13 20 7 11 - - 1.4
28/09:00pm 8.4 5.1 6.2 86 1.0 SE 13 20 7 11 - - 1.4
28/08:30pm 8.9 5.9 7.5 91 0.7 SE 13 19 7 10 - - 1.4
28/08:00pm 9.1 6.6 8.0 93 0.5 SE 11 17 6 9 - - 1.4
28/07:30pm 9.6 7.9 8.5 93 0.5 SSE 7 13 4 7 - - 1.2
28/07:00pm 9.7 7.7 8.5 92 0.6 SSW 9 13 5 7 - - 1.0
28/06:30pm 9.8 8.1 8.4 91 0.7 SW 7 11 4 6 - - 0.8
28/06:00pm 10.2 7.7 8.3 88 0.9 SW 11 15 6 8 - - 0.8
28/05:30pm 12.3 10.2 6.8 69 2.7 WSW 7 9 4 5 - - 0.0
28/05:00pm 13.1 10.6 6.7 65 3.1 WSW 9 13 5 7 - - 0.0
28/04:30pm 12.6 10.4 6.2 65 3.1 SW 7 11 4 6 - - 0.0
28/04:00pm 13.2 11.0 6.1 62 3.4 WSW 7 11 4 6 - - 0.0
28/03:30pm 13.4 11.3 6.5 63 3.3 SSW 7 11 4 6 - - 0.0
28/03:00pm 13.4 10.7 5.8 60 3.6 SSE 9 19 5 10 - - 0.0
28/02:30pm 12.3 9.1 5.0 61 3.4 S 11 17 6 9 - - 0.0
28/02:00pm 12.5 9.3 5.0 60 3.5 SE 11 22 6 12 - - 0.0
28/01:30pm 12.1 9.3 5.0 62 3.3 S 9 15 5 8 - - 0.0
28/01:00pm 12.1 8.8 4.8 61 3.4 S 11 20 6 11 - - 0.0
28/12:30pm 12.1 8.1 4.8 61 3.4 SSE 15 20 8 11 - - 0.0
28/12:00pm 11.7 8.3 4.2 60 3.4 S 11 20 6 11 - - 0.0
28/11:30am 11.6 7.5 4.1 60 3.4 SSE 15 22 8 12 - - 0.0
28/11:00am 11.3 7.5 4.1 61 3.2 S 13 22 7 12 - - 0.0
28/10:30am 10.5 6.7 4.0 64 2.9 S 13 20 7 11 - - 0.0
28/10:00am 9.6 6.3 4.8 72 2.2 SSW 11 17 6 9 - - 0.0
28/09:30am 8.9 6.9 6.3 84 1.2 SSW 6 13 3 7 - - 0.0
28/09:00am 8.3 6.2 6.8 90 0.7 SW 7 9 4 5 - - 0.0
28/08:30am 7.8 6.3 6.9 94 0.4 SW 4 6 2 3 - - 0.0
28/08:00am 7.5 6.4 6.8 95 0.3 SW 2 4 1 2 - - 0.0
28/07:30am 7.2 5.3 6.5 95 0.3 S 6 7 3 4 - - 0.0
28/07:00am 6.9 4.7 6.0 94 0.4 S 7 9 4 5 - - 0.0
28/06:30am 7.0 4.9 5.9 93 0.5 SSW 6 9 3 5 - - 0.0
28/06:00am 7.4 5.2 6.3 93 0.5 S 7 13 4 7 - - 0.0

Other Formats:

Comma delimited format used in spreadsheet applications
http://www.bom.gov.au/fwo/IDV60801/IDV60801.95832.axf

JavaScript Object Notation format (JSON) in row-major order
http://www.bom.gov.au/fwo/IDV60801/IDV60801.95832.json